Newcastle, WY

4:37 AM MDT on May 28, 2017 (GMT -0600)
Mondell

Weather History for KECS - September, 2014

Change the Weather History Date:

Wednesday, September 3, 2014

  Actual Average (KCUT) Record (KCUT)
Temperature  
Mean Temperature 68 °F -  
Max Temperature 93 °F 77 °F 97 °F (1971)
Min Temperature 44 °F 44 °F 26 °F (1974)
Cooling Degree Days 4    
Growing Degree Days 18 (Base 50)    
Moisture  
Dew Point 32 °F    
Average Humidity 31    
Maximum Humidity 71    
Minimum Humidity 8    
Precipitation  
Precipitation 0.00 in - - ()
Sea Level Pressure  
Sea Level Pressure 29.74 in    
Wind  
Wind Speed 9 mph (West)    
Max Wind Speed 32 mph    
Max Gust Speed 41 mph    
Visibility 10 miles    
Events      
Averages and records for this station are not official NWS values.
T = Trace of Precipitation, MM = Missing Value Source: NWS Daily Summary

Daily Weather History Graph

Daily Weather History Graph

Search for Another Location

Airport or City:

Trip Planner

Search our weather history database for the weather conditions in past years. The results will help you decide how hot, cold, wet, or windy it might be!

Date:

Astronomy

Sep. 03, 2014 Rise Set
Actual Time 6:22 AM MDT 7:29 PM MDT
Civil Twilight 5:53 AM MDT 7:58 PM MDT
Nautical Twilight 5:18 AM MDT 8:34 PM MDT
Astronomical Twilight 4:40 AM MDT 9:11 PM MDT
Moon 3:20 PM MDT (9/3) 12:12 AM MDT (9/3)
Length of Visible Light 14h 05m
Length of Day
13h 06m
Waxing Gibbous, 64% of the Moon is Illuminated
Sep 3
Waxing Gibbous
Sep 8
Full
Sep 15
Last Quarter
Sep 24
New
Oct 1
First Quarter

Hourly Weather History & Observations

Time (MDT) Temp. Dew Point Humidity Pressure Visibility Wind Dir Wind Speed Gust Speed Precip Events Conditions
12:15 AM 68.0 °F 32.0 °F 26% 29.78 in 10.0 mi East 11.5 mph - N/A   Clear
12:35 AM 68.0 °F 32.0 °F 26% 29.78 in 10.0 mi ESE 13.8 mph 17.3 mph N/A   Clear
12:55 AM 68.0 °F 32.0 °F 26% 29.78 in 10.0 mi ESE 12.7 mph - N/A   Clear
1:15 AM 68.0 °F 32.0 °F 26% 29.77 in 10.0 mi ESE 8.1 mph - N/A   Clear
1:35 AM 68.0 °F 32.0 °F 26% 29.77 in 10.0 mi North - - N/A   Clear
1:55 AM 64.4 °F 32.0 °F 30% 29.77 in 10.0 mi North - - N/A   Clear
2:15 AM 64.4 °F 32.0 °F 30% 29.76 in 10.0 mi North - - N/A   Clear
2:35 AM 60.8 °F 33.8 °F 36% 29.76 in 10.0 mi Calm Calm - N/A   Clear
2:55 AM 55.4 °F 35.6 °F 47% 29.76 in 10.0 mi Calm Calm - N/A   Clear
3:15 AM 53.6 °F 35.6 °F 51% 29.75 in 10.0 mi NW 4.6 mph - N/A   Clear
3:35 AM 51.8 °F 35.6 °F 54% 29.75 in 10.0 mi Calm Calm - N/A   Clear
3:55 AM 53.6 °F 35.6 °F 51% 29.76 in 10.0 mi Calm Calm - N/A   Clear
4:15 AM 51.8 °F 35.6 °F 54% 29.75 in 10.0 mi North - - N/A   Clear
4:35 AM 50.0 °F 35.6 °F 58% 29.76 in 10.0 mi Calm Calm - N/A   Clear
4:55 AM 46.4 °F 35.6 °F 66% 29.76 in 10.0 mi Calm Calm - N/A   Clear
5:15 AM 48.2 °F 35.6 °F 62% 29.76 in 10.0 mi Calm Calm - N/A   Clear
5:35 AM 50.0 °F 35.6 °F 58% 29.76 in 10.0 mi North 3.5 mph - N/A   Clear
5:55 AM 48.2 °F 35.6 °F 62% 29.76 in 10.0 mi North - - N/A   Clear
6:15 AM 48.2 °F 35.6 °F 62% 29.77 in 10.0 mi Calm Calm - N/A   Clear
6:35 AM 44.6 °F 35.6 °F 71% 29.77 in 10.0 mi Calm Calm - N/A   Clear
6:55 AM 46.4 °F 35.6 °F 66% 29.78 in 10.0 mi Calm Calm - N/A   Clear
7:15 AM 51.8 °F 35.6 °F 54% 29.77 in 10.0 mi Calm Calm - N/A   Clear
7:35 AM 53.6 °F 37.4 °F 54% 29.77 in 10.0 mi Calm Calm - N/A   Clear
7:55 AM 55.4 °F 37.4 °F 51% 29.78 in 10.0 mi Calm Calm - N/A   Clear
8:15 AM 59.0 °F 41.0 °F 51% 29.80 in 10.0 mi SSW 6.9 mph - N/A   Clear
8:35 AM 59.0 °F 39.2 °F 48% 29.81 in 10.0 mi SSE 9.2 mph - N/A   Clear
8:55 AM 60.8 °F 37.4 °F 42% 29.80 in 10.0 mi ESE 8.1 mph - N/A   Clear
9:15 AM 64.4 °F 33.8 °F 32% 29.80 in 10.0 mi SE 9.2 mph - N/A   Clear
9:35 AM 68.0 °F 32.0 °F 26% 29.79 in 10.0 mi North - - N/A   Clear
9:55 AM 69.8 °F 30.2 °F 23% 29.79 in 10.0 mi Calm Calm - N/A   Clear
10:15 AM 73.4 °F 30.2 °F 20% 29.77 in 10.0 mi NE 6.9 mph - N/A   Clear
10:35 AM 73.4 °F 30.2 °F 20% 29.77 in 10.0 mi South 4.6 mph - N/A   Clear
10:55 AM 73.4 °F 30.2 °F 20% 29.77 in 10.0 mi SSE 5.8 mph - N/A   Clear
11:15 AM 78.8 °F 28.4 °F 16% 29.76 in 10.0 mi SE 5.8 mph - N/A   Clear
11:35 AM 78.8 °F 28.4 °F 16% 29.75 in 10.0 mi North - - N/A   Clear
11:55 AM 80.6 °F 28.4 °F 15% 29.75 in 10.0 mi SSE 5.8 mph - N/A   Clear
12:15 PM 82.4 °F 28.4 °F 14% 29.74 in 10.0 mi SE 6.9 mph - N/A   Clear
12:35 PM 82.4 °F 30.2 °F 15% 29.74 in 10.0 mi SSW 10.4 mph 24.2 mph N/A   Clear
12:55 PM 84.2 °F 28.4 °F 13% 29.74 in 10.0 mi South 9.2 mph - N/A   Clear
1:15 PM 86.0 °F 30.2 °F 13% 29.72 in 10.0 mi SE 8.1 mph - N/A   Clear
1:35 PM 87.8 °F 30.2 °F 13% 29.71 in 10.0 mi SSE 8.1 mph 17.3 mph N/A   Clear
1:55 PM 87.8 °F 30.2 °F 13% 29.70 in 10.0 mi North - - N/A   Clear
2:15 PM 89.6 °F 30.2 °F 12% 29.69 in 10.0 mi North - - N/A   Clear
2:35 PM 89.6 °F 30.2 °F 12% 29.67 in 10.0 mi SSE 10.4 mph - N/A   Clear
2:55 PM 89.6 °F 32.0 °F 13% 29.66 in 10.0 mi SSE 10.4 mph 18.4 mph N/A   Clear
3:15 PM 91.4 °F 24.8 °F 9% 29.66 in 10.0 mi West 24.2 mph - N/A   Clear
3:35 PM 91.4 °F 26.6 °F 10% 29.65 in 10.0 mi West 23.0 mph 31.1 mph N/A   Clear
3:55 PM 91.4 °F 24.8 °F 9% 29.65 in 10.0 mi West 21.9 mph 34.5 mph N/A   Clear
4:15 PM 93.2 °F 23.0 °F 8% 29.65 in 10.0 mi West 26.5 mph 32.2 mph N/A   Clear
4:35 PM 91.4 °F 23.0 °F 8% 29.65 in 10.0 mi West 21.9 mph 33.4 mph N/A   Clear
4:55 PM 91.4 °F 23.0 °F 8% 29.65 in 10.0 mi West 13.8 mph 29.9 mph N/A   Clear
5:15 PM 91.4 °F 23.0 °F 8% 29.65 in 10.0 mi West 15.0 mph 25.3 mph N/A   Clear
5:55 PM 89.6 °F 26.6 °F 10% 29.65 in 10.0 mi West 16.1 mph - N/A   Clear
6:15 PM 87.8 °F 28.4 °F 12% 29.66 in 10.0 mi North - - N/A   Clear
6:35 PM 87.8 °F 26.6 °F 11% 29.66 in 10.0 mi North - - N/A   Clear
6:55 PM 86.0 °F 26.6 °F 12% 29.66 in 10.0 mi WNW 9.2 mph - N/A   Clear
7:15 PM 82.4 °F 26.6 °F 13% 29.66 in 10.0 mi NW 8.1 mph - N/A   Clear
7:40 PM 77.0 °F 23.0 °F 13% 29.67 in 10.0 mi NNW 8.1 mph - N/A   Clear
7:55 PM 77.0 °F 23.0 °F 13% 29.68 in 10.0 mi North 5.8 mph - N/A   Clear
8:15 PM 77.0 °F 23.0 °F 13% 29.69 in 10.0 mi North - - N/A   Clear
8:35 PM 77.0 °F 24.8 °F 14% 29.69 in 10.0 mi North - - N/A   Clear
8:55 PM 73.4 °F 30.2 °F 20% 29.72 in 10.0 mi NW 20.7 mph 28.8 mph N/A   Clear
9:15 PM 69.8 °F 42.8 °F 38% 29.74 in 10.0 mi NW 32.2 mph 41.4 mph N/A   Clear
9:55 PM 66.2 °F 44.6 °F 46% 29.79 in 10.0 mi NNW 28.8 mph 38.0 mph N/A   Clear
10:15 PM 64.4 °F 44.6 °F 49% 29.80 in 10.0 mi NNW 29.9 mph 40.3 mph N/A   Clear
10:35 PM 62.6 °F 44.6 °F 52% 29.82 in 10.0 mi NNW 29.9 mph 39.1 mph N/A   Clear
10:55 PM 62.6 °F 44.6 °F 52% 29.84 in 10.0 mi NNW 19.6 mph 32.2 mph N/A   Clear
11:15 PM 60.8 °F 44.6 °F 55% 29.84 in 10.0 mi NNW 23.0 mph 29.9 mph N/A   Clear
11:35 PM 59.0 °F 46.4 °F 63% 29.85 in 10.0 mi NW 20.7 mph 34.5 mph N/A   Clear
11:55 PM 59.0 °F 44.6 °F 59% 29.87 in 10.0 mi NNW 20.7 mph 31.1 mph N/A   Clear